Location: Be Tobo
(6.6442°N, 10.6239°W)
Time: 01:29:46
(UTC+00:00)

Meteor 1-12 Rocket - Pass Details

Date: 18 September 2020
Orbit: 854 x 927 km, 81.2° (Epoch: 21 October)

Event Time Altitude Azimuth Distance (km) Brightness Sun altitude
Rises 19:37:52 0° 181° (S) 3,568 7.4 -15.1°
Reaches altitude 10° 19:40:21 10° 179° (S) 2,622 6.7 -15.7°
Maximum altitude 19:46:20 73° 95° (E) 959 4.3 -17.2°
Drops below altitude 10° 19:52:14 10° 11° (N) 2,590 6.7 -18.7°
Sets 19:54:41 0° 9° (N) 3,521 7.4 -19.3°
